Home   Weather   Topeka   Past weeks
Flag for USA

Past Weather in Topeka, Kansas, USA — Yesterday and Last 2 Weeks

Now
37 °F

Sunny.


Feels Like: 30 °F
Forecast: 35 / 22 °F
Wind: 10 mph from Southwest

Location: Philip Billard Municipal Airport

Current Time: Feb 20, 2019 at 5:51:01 pm

Latest Report: Feb 20, 2019 at 4:53 pm


Visibility: 10 mi

Pressure: 29.89 "Hg

Humidity: 54%

Dew Point: 22 °F

Location of TopekaLocation

Past Weather in Topeka — Graph

°F

Topeka Temperature Yesterday

Maximum temperature yesterday: 31 °F (at 2:53 pm)
Minimum temperature yesterday: 18 °F (at 1:53 am)
Average temperature yesterday: 25 °F

High & Low Weather Summary for the Past Weeks

 TemperatureHumidityPressure
High55 °F (Feb 14, 11:53 am)97% (Feb 11, 12:00 am)30.80 "Hg (Feb 11, 12:00 am)
Low7 °F (Feb 8, 5:53 am)38% (Feb 8, 1:53 pm)29.44 "Hg (Feb 14, 4:53 am)
Average26 °F74%30.10 "Hg
* Reported Feb 5 3:53 pm — Feb 20 3:53 pm, Topeka. Weather by CustomWeather, © 2019

Note: Actual official high and low records may vary slightly from our data, if they occured in-between our weather recording intervals... More about our weather records

Advertising

Topeka Weather History for the Previous 24 Hours

Scroll right to see more
 ConditionsComfort  
Time TempWeatherWind HumidityBarometerVisibility
3:53 pm
Wed, Feb 20
38 °FSunny.14 mph51%29.87 "Hg10 mi
2:53 pm37 °FSunny.15 mph54%29.84 "Hg10 mi
2:14 pm37 °FScattered clouds.15 mph57%29.80 "Hg10 mi
1:53 pm37 °FPartly sunny.12 mph60%29.82 "Hg10 mi
1:21 pm36 °FPartly sunny.16 mph59%29.80 "Hg10 mi
12:53 pm36 °FOvercast.18 mph62%29.83 "Hg10 mi
11:53 am36 °FPartly sunny.13 mph62%29.82 "Hg10 mi
10:53 am34 °FMostly cloudy.14 mph73%29.82 "Hg10 mi
10:25 am33 °FMostly cloudy.12 mph78%29.79 "Hg10 mi
9:53 am32 °FOvercast.13 mph79%29.81 "Hg7 mi
8:53 am31 °FMostly cloudy.9 mph82%29.79 "Hg10 mi
7:53 am30 °FLow clouds.7 mph85%29.78 "Hg9 mi
7:09 am29 °FMostly cloudy.3 mph89%29.76 "Hg7 mi
6:53 am29 °FIce fog.5 mph89%29.79 "Hg6 mi
6:19 am28 °FIce fog.No wind89%29.77 "Hg5 mi
6:02 am28 °FIce fog.No wind93%29.77 "Hg5 mi
5:00 am29 °FIce fog.No wind89%29.79 "Hg3 mi
4:41 am29 °FLight snow. Ice fog.No wind93%29.79 "Hg2 mi
4:21 am29 °FLight snow. Ice fog.No wind93%29.80 "Hg2 mi
4:04 am29 °FLight snow. Ice fog.No wind89%29.80 "Hg1 mi
3:53 am28 °FLight snow. Ice fog.No wind93%29.83 "Hg1 mi
3:22 am28 °FIce fog.No wind93%29.82 "Hg2 mi
2:53 am28 °FIce fog.No wind93%29.85 "Hg2 mi
2:31 am28 °FIce fog.3 mph93%29.83 "Hg2 mi
1:53 am28 °FIce fog.5 mph89%29.88 "Hg4 mi
1:28 am28 °FIce fog.7 mph89%29.88 "Hg5 mi
1:07 am28 °FIce fog.7 mph89%29.89 "Hg3 mi
12:58 am28 °FIce fog.7 mph89%29.88 "Hg2 mi
12:38 am28 °FLight snow. Ice fog.9 mph89%29.90 "Hg2 mi
12:17 am28 °FLight snow. Ice fog.9 mph89%29.91 "Hg1 mi
12:07 am28 °FLight snow. Ice fog.10 mph85%29.92 "Hg2 mi
11:33 pm
Tue, Feb 19
28 °FIce fog.8 mph89%29.95 "Hg4 mi
11:22 pm28 °FLight snow. Ice fog.9 mph89%29.95 "Hg3 mi
10:53 pm27 °FLight snow. Ice fog.14 mph89%29.98 "Hg1 mi
10:24 pm27 °FLight snow. Ice fog.15 mph89%29.98 "Hg1 mi
9:53 pm27 °FLight snow. Ice fog.12 mph89%30.05 "Hg1 mi
9:19 pm27 °FLight snow. Ice fog.7 mph89%30.05 "Hg1 mi
8:53 pm27 °FLight snow. Ice fog.8 mph89%30.08 "Hg1 mi
8:44 pm27 °FLight snow. Ice fog.9 mph89%30.05 "Hg1 mi
7:53 pm27 °FSnow. Ice fog.13 mph89%30.09 "Hg1 mi
6:53 pm27 °FLight snow. Ice fog.16 mph81%30.14 "Hg1 mi
5:53 pm29 °FMostly cloudy.18 mph69%30.17 "Hg10 mi
Weather by CustomWeather, © 2019

See weather overview